Location: Colonia Mina de C?rbuni
(46.1667°N, 22.7167°E)
Time: 10:48:08
(UTC+00:00)

BlueWalker 3 - Pass Details

Date: 05 March 2024
Orbit: 485 x 496 km, 53.2° (Epoch: 12 April)

Event Time Altitude Azimuth Distance (km) Brightness Sun altitude
Rises 18:05:54 0° 293° (WNW) 2,557 7.1 -18.8°
Reaches altitude 10° 18:08:25 10° 278° (W) 1,671 5.8 -19.2°
Maximum altitude 18:11:20 22° 227° (SW) 1,116 4.0 -19.7°
Enters shadow 18:13:31 14° 184° (S) 1,446 4.1 -20.1°
